Total_Precipitation_Accumulation
1.02 1.09 1.13 1.12 1.05 1.16 1.20 1.20 1.25 1.27 1.19 1.19 1.24 1.30 1.28 1.32 1.40 1.48 1.37 1.41 1.50 1.63 1.57 1.53 1.58 1.64 1.60 1.52 1.55 1.56 1.60 1.81 1.78 1.43 1.47 1.52 1.42 1.24 1.13 1.06 1.01 1.07 1.08
0.97 1.08 1.14 1.22 1.14 1.11 1.15 1.22 1.27 1.36 1.41 1.35 1.34 1.35 1.26 1.28 1.44 1.50 1.48 1.49 1.50 1.52 1.67 1.87 1.85 1.81 1.69 1.55 1.63 1.59 1.59 1.83 1.78 1.58 1.64 1.69 1.64 1.42 1.30 1.19 1.03 1.01 1.07
1.00 1.06 1.14 1.21 1.16 1.14 1.28 1.38 1.38 1.50 1.61 1.63 1.58 1.47 1.38 1.33 1.37 1.43 1.48 1.49 1.53 1.60 1.71 1.80 1.87 1.98 1.83 1.70 1.66 1.64 1.69 1.81 1.90 1.79 1.76 1.92 1.88 1.64 1.49 1.27 1.07 1.09 0.97
0.97 1.08 1.17 1.23 1.24 1.25 1.36 1.45 1.46 1.53 1.66 1.77 1.72 1.66 1.62 1.50 1.37 1.34 1.37 1.42 1.57 1.71 1.75 1.69 1.79 2.03 2.09 2.04 1.86 1.79 1.85 1.96 2.01 2.00 1.97 2.05 2.08 1.99 1.78 1.48 1.30 1.17 1.03
1.13 1.28 1.34 1.46 1.51 1.54 1.62 1.64 1.59 1.60 1.63 1.78 1.87 1.87 1.79 1.62 1.39 1.38 1.47 1.45 1.59 1.64 1.61 1.52 1.53 1.71 1.92 2.02 1.86 1.82 1.88 1.89 1.91 1.97 2.00 2.04 2.05 2.13 1.96 1.66 1.46 1.33 1.15
1.31 1.59 1.63 1.71 1.76 1.86 2.00 2.09 2.00 1.95 2.01 2.06 2.03 1.97 1.87 1.51 1.54 1.51 1.49 1.54 1.63 1.66 1.63 1.57 1.45 1.37 1.37 1.50 1.64 1.76 1.87 1.82 1.78 1.91 2.05 2.08 2.04 2.06 2.06 1.90 1.66 1.43 1.28
1.41 1.66 1.86 1.96 2.03 2.11 2.22 2.25 2.18 2.25 2.38 2.39 2.27 2.10 1.96 1.86 1.73 1.52 1.45 1.39 1.41 1.43 1.50 1.49 1.27 1.15 1.22 1.17 1.31 1.42 1.53 1.60 1.60 1.71 1.84 1.94 2.06 2.20 2.24 2.03 1.83 1.66 1.42
1.66 1.83 2.00 2.02 2.03 2.08 2.15 2.10 2.12 2.24 2.32 2.33 2.28 2.16 2.05 1.96 1.80 1.48 1.40 1.23 1.25 1.28 1.31 1.30 1.26 1.21 1.20 1.23 1.24 1.22 1.21 1.28 1.38 1.41 1.53 1.74 1.97 2.17 2.30 2.18 2.04 1.75 1.48
1.70 1.80 1.83 1.93 2.00 2.05 2.10 2.14 2.14 2.14 2.05 1.96 1.93 1.94 1.91 1.97 1.88 1.53 1.36 1.23 1.33 1.34 1.33 1.33 1.32 1.25 1.33 1.19 1.13 1.16 1.16 1.20 1.25 1.31 1.34 1.51 1.76 1.94 2.01 2.03 1.96 1.78 1.54
1.77 1.81 1.80 1.90 1.97 2.03 2.08 2.13 2.06 1.99 1.94 1.88 1.78 1.80 1.80 1.80 1.76 1.42 1.30 1.24 1.34 1.36 1.38 1.37 1.33 1.21 1.19 1.05 0.97 1.07 1.07 1.09 1.14 1.15 1.17 1.18 1.25 1.56 1.85 1.69 1.66 1.67 1.51
1.57 1.64 1.73 1.87 1.98 2.01 2.05 2.01 1.95 1.87 1.88 1.89 1.81 1.73 1.69 1.69 1.70 1.43 1.27 1.17 1.30 1.42 1.40 1.35 1.35 1.27 1.02 0.95 0.90 0.93 0.97 1.00 1.09 1.11 1.08 1.10 1.19 1.33 1.55 1.59 1.54 1.49 1.45
1.38 1.43 1.46 1.55 1.69 1.75 1.81 1.75 1.75 1.71 1.66 1.64 1.60 1.52 1.47 1.48 1.43 1.34 1.14 1.03 1.10 1.25 1.36 1.38 1.40 1.25 0.98 0.86 0.75 0.73 0.71 0.67 0.76 0.89 0.97 1.00 1.04 1.15 1.29 1.43 1.47 1.45 1.33
1.25 1.29 1.30 1.31 1.45 1.58 1.63 1.58 1.56 1.53 1.47 1.44 1.39 1.35 1.32 1.29 1.25 1.09 0.94 0.85 0.89 1.01 1.19 1.34 1.26 1.07 0.89 0.75 0.69 0.64 0.58 0.55 0.65 0.76 0.85 0.89 0.90 0.97 1.20 1.48 1.62 1.64 1.53
1.29 1.27 1.26 1.28 1.37 1.59 1.67 1.54 1.45 1.40 1.35 1.33 1.29 1.29 1.32 1.35 1.29 1.10 0.91 0.76 0.80 0.90 1.00 1.09 1.10 1.08 1.02 0.93 0.82 0.71 0.62 0.66 0.74 0.81 0.92 1.02 1.11 1.18 1.26 1.39 1.57 1.61 1.59
1.05 1.02 1.00 1.06 1.18 1.37 1.48 1.45 1.30 1.26 1.31 1.33 1.29 1.26 1.20 1.16 1.19 1.09 0.93 0.89 0.92 1.00 0.99 1.04 1.06 1.14 1.18 1.19 1.15 1.07 0.99 0.95 0.89 0.87 0.99 1.10 1.14 1.17 1.20 1.29 1.42 1.45 1.35
1.00 0.94 0.94 0.94 1.04 1.21 1.42 1.48 1.33 1.13 1.15 1.14 1.09 1.05 1.01 0.96 0.94 0.92 0.89 0.86 0.91 0.94 0.89 1.02 1.17 1.27 1.35 1.36 1.34 1.22 1.10 0.99 0.91 0.93 0.99 1.07 1.11 1.12 1.15 1.26 1.37 1.38 1.26
1.04 0.99 0.96 0.94 0.98 1.07 1.30 1.52 1.56 1.33 1.11 1.01 0.90 0.80 0.76 0.74 0.77 0.81 0.85 0.80 0.77 0.75 0.73 0.88 1.05 1.14 1.23 1.24 1.24 1.16 1.11 1.04 1.02 1.05 1.11 1.15 1.19 1.19 1.20 1.21 1.30 1.34 1.25
1.00 0.96 0.88 0.85 0.89 0.99 1.21 1.49 1.66 1.60 1.41 1.15 0.89 0.73 0.67 0.62 0.63 0.71 0.76 0.71 0.66 0.61 0.59 0.70 0.82 0.94 1.07 1.20 1.26 1.23 1.20 1.18 1.11 1.09 1.16 1.18 1.21 1.24 1.22 1.18 1.22 1.28 1.25
0.93 0.92 0.86 0.84 0.88 0.94 1.13 1.40 1.59 1.65 1.56 1.41 1.08 0.78 0.65 0.60 0.61 0.69 0.69 0.66 0.68 0.64 0.61 0.64 0.69 0.81 0.99 1.16 1.26 1.31 1.32 1.25 1.14 1.12 1.13 1.16 1.17 1.21 1.19 1.13 1.17 1.27 1.27
0.82 0.83 0.73 0.71 0.74 0.77 0.88 1.09 1.34 1.48 1.43 1.34 1.15 0.77 0.55 0.52 0.59 0.74 0.79 0.84 0.84 0.75 0.70 0.70 0.72 0.80 0.95 1.13 1.23 1.26 1.30 1.25 1.19 1.16 1.13 1.17 1.19 1.20 1.18 1.14 1.14 1.21 1.18
0.74 0.73 0.63 0.55 0.59 0.65 0.71 0.89 1.14 1.31 1.26 1.17 1.03 0.72 0.53 0.52 0.64 0.76 0.89 0.93 0.91 0.84 0.79 0.74 0.73 0.79 0.91 1.06 1.14 1.18 1.24 1.22 1.16 1.14 1.13 1.15 1.19 1.20 1.25 1.25 1.19 1.21 1.23
0.60 0.62 0.58 0.55 0.59 0.60 0.62 0.78 1.02 1.18 1.14 1.08 0.98 0.75 0.61 0.62 0.72 0.82 0.87 0.85 0.81 0.74 0.70 0.74 0.76 0.82 0.89 0.96 1.05 1.15 1.20 1.20 1.18 1.15 1.15 1.17 1.22 1.22 1.26 1.27 1.23 1.21 1.22
0.47 0.47 0.45 0.46 0.49 0.50 0.59 0.76 0.93 1.01 0.99 0.94 0.83 0.71 0.68 0.70 0.72 0.77 0.81 0.80 0.76 0.72 0.71 0.76 0.82 0.86 0.90 0.93 0.97 1.05 1.10 1.09 1.08 1.10 1.16 1.20 1.23 1.23 1.23 1.23 1.20 1.21 1.18
0.40 0.43 0.45 0.48 0.50 0.56 0.65 0.78 0.84 0.84 0.82 0.80 0.76 0.76 0.78 0.80 0.75 0.73 0.77 0.78 0.80 0.81 0.80 0.79 0.81 0.82 0.83 0.85 0.88 0.90 0.94 0.91 0.88 0.91 0.97 1.04 1.09 1.12 1.15 1.18 1.19 1.20 1.20
0.37 0.41 0.46 0.52 0.56 0.60 0.68 0.76 0.77 0.76 0.72 0.70 0.70 0.74 0.75 0.71 0.74 0.76 0.80 0.81 0.81 0.79 0.75 0.75 0.77 0.75 0.72 0.70 0.69 0.71 0.75 0.70 0.62 0.65 0.74 0.88 0.96 1.00 1.02 1.07 1.14 1.18 1.19
0.38 0.39 0.44 0.50 0.52 0.56 0.67 0.74 0.71 0.65 0.60 0.59 0.61 0.68 0.69 0.69 0.74 0.77 0.79 0.83 0.84 0.81 0.79 0.77 0.72 0.70 0.69 0.68 0.66 0.67 0.62 0.52 0.47 0.50 0.53 0.66 0.82 0.90 0.95 1.01 1.05 1.13 1.15